Regional Weather Roundup
Issued by NWS

Home | Current Version | Previous Version | Text Only | Print | Product List | Glossary Off
Versions: 1 2 3 4 5 6 7 8 9 10 11 12 13 14 15 16 17 18 19 20 21 22 23 24 25 26 27 28 29 30 31 32 33 34 35 36 37 38 39 40 41 42 43 44 45 46 47 48 49 50

000
ASUS43 KFSD 282202
RWRSD

WEATHER ROUNDUP FOR SOUTH DAKOTA
NATIONAL WEATHER SERVICE SIOUX FALLS SD
500 PM CDT FRI AUG 28 2015

NOTE: "FAIR" INDICATES FEW OR NO CLOUDS BELOW 12,000 FEET WITH NO
SIGNIFICANT WEATHER AND/OR OBSTRUCTIONS TO VISIBILITY.


SDZ001>005-009-010-012>017-282300-
NORTHWEST AND NORTH CENTRAL SOUTH DAKOTA

CITY           SKY/WX    TMP DP  RH WIND       PRES   REMARKS
BUFFALO          N/A     85  51  31 W14       29.94R
FAITH            N/A     86  53  32 SW9       29.96S
MOBRIDGE       SUNNY     83  70  64 S13       29.90F
$$

SDZ012>016-024>037-041>051-057-063-072>074-282300-
SOUTHWEST AND SOUTH CENTRAL SOUTH DAKOTA

CITY           SKY/WX    TMP DP  RH WIND       PRES   REMARKS
RAPID CTY ARPT SUNNY     86  57  37 N6        30.02F
PIERRE         SUNNY     81  66  60 SE5       29.93F
CUSTER         MOSUNNY   79  48  33 SE8       30.19F
ELLSWORTH AFB  SUNNY     87  52  29 N8        30.02F
PHILIP         SUNNY     83  65  54 S7        29.96F
PINE RIDGE     SUNNY     87  51  28 N7        30.04F
WINNER         FAIR      78  65  63 VRB5      29.99S
$$

SDZ004>011-016>023-039-040-282300-
NORTHEAST SOUTH DAKOTA

CITY           SKY/WX    TMP DP  RH WIND       PRES   REMARKS
ABERDEEN       SUNNY     78  67  68 S8        29.93S
WATERTOWN      MOSUNNY   77  64  64 S9        29.96R
BROOKINGS      MOSUNNY   72  63  73 E10       29.98F
$$

SDZ017-020-022-023-036>040-048>070-282300-
SOUTHEAST SOUTH DAKOTA

CITY           SKY/WX    TMP DP  RH WIND       PRES   REMARKS
SIOUX FALLS    CLOUDY    70  61  73 E14       29.95S
HURON          MOSUNNY   78  65  63 CALM      29.94S
CHAMBERLAIN    SUNNY     76  66  70 CALM      29.97F
MITCHELL       PTSUNNY   76  67  73 E9        29.95S
YANKTON        CLOUDY    73  64  73 NE12      29.93R
$$

ABBREVIATIONS USED IN REMARKS
   TC - TEMPERATURE IN CELSIUS
  WCI - WIND CHILL INDEX
   HX - HEAT INDEX
  VSB - VISIBILITY



USA.gov is the U.S. government's official web portal to all federal, state and local government web resources and services.